Year,Month,Day,Hour,Minute,Value (Times are PST for windspeed in km/hr)
2018,01,29,00,00,1.70
2018,01,29,00,01,2.00
2018,01,29,00,02,1.30
2018,01,29,00,03,0.80
2018,01,29,00,04,1.20
2018,01,29,00,05,1.10
2018,01,29,00,06,0.80
2018,01,29,00,07,1.30
2018,01,29,00,08,0.70
2018,01,29,00,09,1.30
2018,01,29,00,10,1.30
2018,01,29,00,11,0.40
2018,01,29,00,12,0.50
2018,01,29,00,13,0.40
2018,01,29,00,14,0.30
2018,01,29,00,15,0.60
2018,01,29,00,16,0.10
2018,01,29,00,17,0.80
2018,01,29,00,18,0.50
2018,01,29,00,19,0.20
2018,01,29,00,20,0.20
2018,01,29,00,21,0.00
2018,01,29,00,22,0.00
2018,01,29,00,23,0.00
2018,01,29,00,24,0.00
2018,01,29,00,25,0.00
2018,01,29,00,26,0.00
2018,01,29,00,27,0.00
2018,01,29,00,28,0.10
2018,01,29,00,29,0.50
2018,01,29,00,30,1.20
2018,01,29,00,31,1.90
2018,01,29,00,32,1.90
2018,01,29,00,33,2.10
2018,01,29,00,34,2.50
2018,01,29,00,35,1.70
2018,01,29,00,36,1.20
2018,01,29,00,37,0.20
2018,01,29,00,38,0.00
2018,01,29,00,39,0.70
2018,01,29,00,40,1.00
2018,01,29,00,41,0.70
2018,01,29,00,42,0.00
2018,01,29,00,43,0.00
2018,01,29,00,44,0.80
2018,01,29,00,45,0.00
2018,01,29,00,46,0.00
2018,01,29,00,47,0.00
2018,01,29,00,48,0.00
2018,01,29,00,49,0.10
2018,01,29,00,50,1.40
2018,01,29,00,51,1.40
2018,01,29,00,52,1.20
2018,01,29,00,53,1.50
2018,01,29,00,54,1.50
2018,01,29,00,55,0.20
2018,01,29,00,56,0.70
2018,01,29,00,57,2.30
2018,01,29,00,58,0.60
2018,01,29,00,59,0.00
2018,01,29,01,00,0.10
2018,01,29,01,01,0.10
2018,01,29,01,02,1.00
2018,01,29,01,03,1.60
2018,01,29,01,04,0.10
2018,01,29,01,05,0.70
2018,01,29,01,06,1.10
2018,01,29,01,07,1.90
2018,01,29,01,08,1.80
2018,01,29,01,09,1.80
2018,01,29,01,10,1.70
2018,01,29,01,11,1.00
2018,01,29,01,12,0.50
2018,01,29,01,13,0.00
2018,01,29,01,14,0.60
2018,01,29,01,15,1.40
2018,01,29,01,16,1.10
2018,01,29,01,17,1.50
2018,01,29,01,18,0.40
2018,01,29,01,19,1.30
2018,01,29,01,20,1.60
2018,01,29,01,21,0.70
2018,01,29,01,22,0.40
2018,01,29,01,23,1.40
2018,01,29,01,24,1.50
2018,01,29,01,25,0.80
2018,01,29,01,26,3.20
2018,01,29,01,27,1.90
2018,01,29,01,28,0.90
2018,01,29,01,29,0.10
2018,01,29,01,30,0.00
2018,01,29,01,31,0.80
2018,01,29,01,32,0.30
2018,01,29,01,33,0.30
2018,01,29,01,34,1.10
2018,01,29,01,35,1.70
2018,01,29,01,36,2.20
2018,01,29,01,37,2.40
2018,01,29,01,38,4.00
2018,01,29,01,39,2.10
2018,01,29,01,40,2.10
2018,01,29,01,41,1.40
2018,01,29,01,42,2.30
2018,01,29,01,43,1.20
2018,01,29,01,44,0.20
2018,01,29,01,45,0.00
2018,01,29,01,46,0.00
2018,01,29,01,47,0.00
2018,01,29,01,48,0.00
2018,01,29,01,49,0.80
2018,01,29,01,50,1.50
2018,01,29,01,51,1.90
2018,01,29,01,52,2.40
2018,01,29,01,53,1.10
2018,01,29,01,54,2.00
2018,01,29,01,55,1.00
2018,01,29,01,56,1.10
2018,01,29,01,57,1.90
2018,01,29,01,58,1.60
2018,01,29,01,59,1.70
2018,01,29,02,00,2.20
2018,01,29,02,01,3.00
2018,01,29,02,02,2.30
2018,01,29,02,03,1.60
2018,01,29,02,04,1.60
2018,01,29,02,05,1.70
2018,01,29,02,06,3.30
2018,01,29,02,07,3.30
2018,01,29,02,08,2.70
2018,01,29,02,09,1.70
2018,01,29,02,10,1.60
2018,01,29,02,11,0.70
2018,01,29,02,12,0.00
2018,01,29,02,13,0.90
2018,01,29,02,14,0.20
2018,01,29,02,15,0.00
2018,01,29,02,16,0.00
2018,01,29,02,17,0.10
2018,01,29,02,18,3.00
2018,01,29,02,19,2.80
2018,01,29,02,20,3.20
2018,01,29,02,21,2.90
2018,01,29,02,22,4.50
2018,01,29,02,23,4.20
2018,01,29,02,24,3.30
2018,01,29,02,25,2.90
2018,01,29,02,26,1.90
2018,01,29,02,27,2.10
2018,01,29,02,28,3.00
2018,01,29,02,29,1.70
2018,01,29,02,30,0.60
2018,01,29,02,31,2.20
2018,01,29,02,32,3.20
2018,01,29,02,33,1.90
2018,01,29,02,34,1.40
2018,01,29,02,35,0.60
2018,01,29,02,36,2.40
2018,01,29,02,37,2.60
2018,01,29,02,38,0.70
2018,01,29,02,39,1.00
2018,01,29,02,40,2.10
2018,01,29,02,41,2.30
2018,01,29,02,42,2.20
2018,01,29,02,43,2.10
2018,01,29,02,44,2.80
2018,01,29,02,45,1.60
2018,01,29,02,46,2.50
2018,01,29,02,47,1.30
2018,01,29,02,48,2.40
2018,01,29,02,49,1.70
2018,01,29,02,50,0.80
2018,01,29,02,51,0.20
2018,01,29,02,52,0.90
2018,01,29,02,53,0.60
2018,01,29,02,54,1.80
2018,01,29,02,55,1.80
2018,01,29,02,56,0.30
2018,01,29,02,57,0.00
2018,01,29,02,58,3.00
2018,01,29,02,59,2.70
2018,01,29,03,00,3.90
2018,01,29,03,01,3.20
2018,01,29,03,02,4.30
2018,01,29,03,03,4.00
2018,01,29,03,04,1.60
2018,01,29,03,05,3.30
2018,01,29,03,06,8.30
2018,01,29,03,07,6.00
2018,01,29,03,08,5.40
2018,01,29,03,09,1.60
2018,01,29,03,10,1.40
2018,01,29,03,11,2.00
2018,01,29,03,12,2.30
2018,01,29,03,13,2.70
2018,01,29,03,14,2.80
2018,01,29,03,15,3.60
2018,01,29,03,16,4.30
2018,01,29,03,17,4.10
2018,01,29,03,18,3.20
2018,01,29,03,19,6.60
2018,01,29,03,20,3.10
2018,01,29,03,21,2.80
2018,01,29,03,22,1.60
2018,01,29,03,23,1.40
2018,01,29,03,24,1.70
2018,01,29,03,25,2.10
2018,01,29,03,26,0.80
2018,01,29,03,27,0.80
2018,01,29,03,28,1.50
2018,01,29,03,29,0.80
2018,01,29,03,30,1.90
2018,01,29,03,31,1.20
2018,01,29,03,32,2.30
2018,01,29,03,33,2.30
2018,01,29,03,34,0.30
2018,01,29,03,35,0.50
2018,01,29,03,36,0.50
2018,01,29,03,37,1.00
2018,01,29,03,38,1.70
2018,01,29,03,39,2.10
2018,01,29,03,40,1.50
2018,01,29,03,41,1.50
2018,01,29,03,42,0.20
2018,01,29,03,43,0.70
2018,01,29,03,44,1.60
2018,01,29,03,45,2.20
2018,01,29,03,46,2.10
2018,01,29,03,47,1.70
2018,01,29,03,48,2.20
2018,01,29,03,49,1.40
2018,01,29,03,50,1.10
2018,01,29,03,51,1.70
2018,01,29,03,52,1.00
2018,01,29,03,53,0.20
2018,01,29,03,54,0.00
2018,01,29,03,55,0.20
2018,01,29,03,56,0.30
2018,01,29,03,57,0.00
2018,01,29,03,58,0.30
2018,01,29,03,59,0.10
2018,01,29,04,00,0.10
2018,01,29,04,01,1.20
2018,01,29,04,02,0.60
2018,01,29,04,03,0.20
2018,01,29,04,04,0.30
2018,01,29,04,05,0.10
2018,01,29,04,06,0.80
2018,01,29,04,07,0.70
2018,01,29,04,08,0.90
2018,01,29,04,09,1.70
2018,01,29,04,10,1.10
2018,01,29,04,11,0.30
2018,01,29,04,12,0.00
2018,01,29,04,13,0.10
2018,01,29,04,14,0.40
2018,01,29,04,15,0.50
2018,01,29,04,16,1.70
2018,01,29,04,17,1.80
2018,01,29,04,18,3.60
2018,01,29,04,19,3.80
2018,01,29,04,20,3.10
2018,01,29,04,21,2.10
2018,01,29,04,22,1.40
2018,01,29,04,23,1.20
2018,01,29,04,24,1.30
2018,01,29,04,25,1.20
2018,01,29,04,26,0.30
2018,01,29,04,27,1.60
2018,01,29,04,28,0.00
2018,01,29,04,29,1.80
2018,01,29,04,30,3.00
2018,01,29,04,31,1.40
2018,01,29,04,32,0.70
2018,01,29,04,33,1.30
2018,01,29,04,34,0.40
2018,01,29,04,35,0.40
2018,01,29,04,36,0.30
2018,01,29,04,37,1.30
2018,01,29,04,38,0.60
2018,01,29,04,39,1.90
2018,01,29,04,40,1.90
2018,01,29,04,41,0.70
2018,01,29,04,42,0.50
2018,01,29,04,43,0.30
2018,01,29,04,44,0.80
2018,01,29,04,45,2.00
2018,01,29,04,46,1.30
2018,01,29,04,47,1.60
2018,01,29,04,48,0.70
2018,01,29,04,49,1.80
2018,01,29,04,50,0.70
2018,01,29,04,51,1.00
2018,01,29,04,52,0.20
2018,01,29,04,53,0.10
2018,01,29,04,54,0.10
2018,01,29,04,55,0.90
2018,01,29,04,56,1.00
2018,01,29,04,57,0.70
2018,01,29,04,58,0.00
2018,01,29,04,59,0.10
2018,01,29,05,00,0.10
2018,01,29,05,01,0.40
2018,01,29,05,02,1.40
2018,01,29,05,03,0.90
2018,01,29,05,04,1.20
2018,01,29,05,05,0.20
2018,01,29,05,06,0.00
2018,01,29,05,07,0.30
2018,01,29,05,08,0.30
2018,01,29,05,09,0.10
2018,01,29,05,10,0.30
2018,01,29,05,11,0.70
2018,01,29,05,12,0.90
2018,01,29,05,13,1.20
2018,01,29,05,14,0.60
2018,01,29,05,15,0.20
2018,01,29,05,16,0.30
2018,01,29,05,17,0.00
2018,01,29,05,18,1.30
2018,01,29,05,19,1.30
2018,01,29,05,20,2.10
2018,01,29,05,21,0.50
2018,01,29,05,22,1.30
2018,01,29,05,23,3.00
2018,01,29,05,24,2.90
2018,01,29,05,25,2.10
2018,01,29,05,26,1.50
2018,01,29,05,27,1.10
2018,01,29,05,28,1.30
2018,01,29,05,29,1.50
2018,01,29,05,30,0.40
2018,01,29,05,31,0.10
2018,01,29,05,32,0.10
2018,01,29,05,33,1.40
2018,01,29,05,34,1.60
2018,01,29,05,35,0.80
2018,01,29,05,36,0.20
2018,01,29,05,37,0.00
2018,01,29,05,38,0.00
2018,01,29,05,39,0.00
2018,01,29,05,40,0.80
2018,01,29,05,41,1.60
2018,01,29,05,42,2.20
2018,01,29,05,43,1.90
2018,01,29,05,44,1.80
2018,01,29,05,45,1.80
2018,01,29,05,46,2.30
2018,01,29,05,47,2.00
2018,01,29,05,48,1.60
2018,01,29,05,49,1.10
2018,01,29,05,50,0.10
2018,01,29,05,51,0.90
2018,01,29,05,52,1.10
2018,01,29,05,53,0.30
2018,01,29,05,54,0.00
2018,01,29,05,55,0.00
2018,01,29,05,56,0.00
2018,01,29,05,57,0.00
2018,01,29,05,58,0.90
2018,01,29,05,59,1.30
2018,01,29,06,00,1.70
2018,01,29,06,01,2.10
2018,01,29,06,02,1.30
2018,01,29,06,03,0.00
2018,01,29,06,04,0.30
2018,01,29,06,05,0.60
2018,01,29,06,06,0.40
2018,01,29,06,07,0.00
2018,01,29,06,08,0.00
2018,01,29,06,09,0.20
2018,01,29,06,10,0.30
2018,01,29,06,11,0.80
2018,01,29,06,12,0.20
2018,01,29,06,13,0.00
2018,01,29,06,14,0.20
2018,01,29,06,15,0.00
2018,01,29,06,16,0.40
2018,01,29,06,17,0.30
2018,01,29,06,18,0.60
2018,01,29,06,19,0.00
2018,01,29,06,20,0.40
2018,01,29,06,21,0.00
2018,01,29,06,22,0.00
2018,01,29,06,23,0.00
2018,01,29,06,24,0.00
2018,01,29,06,25,0.00
2018,01,29,06,26,0.00
2018,01,29,06,27,0.50
2018,01,29,06,28,1.00
2018,01,29,06,29,1.60
2018,01,29,06,30,1.40
2018,01,29,06,31,1.90
2018,01,29,06,32,0.90
2018,01,29,06,33,0.20
2018,01,29,06,34,0.00
2018,01,29,06,35,0.00
2018,01,29,06,36,0.30
2018,01,29,06,37,0.80
2018,01,29,06,38,0.90
2018,01,29,06,39,0.20
2018,01,29,06,40,0.80
2018,01,29,06,41,1.60
2018,01,29,06,42,1.30
2018,01,29,06,43,0.60
2018,01,29,06,44,0.10
2018,01,29,06,45,0.70
2018,01,29,06,46,0.40
2018,01,29,06,47,0.00
2018,01,29,06,48,0.10
2018,01,29,06,49,1.20
2018,01,29,06,50,1.10
2018,01,29,06,51,0.70
2018,01,29,06,52,0.10
2018,01,29,06,53,0.00
2018,01,29,06,54,0.00
2018,01,29,06,55,0.00
2018,01,29,06,56,0.00
2018,01,29,06,57,0.00
2018,01,29,06,58,0.00
2018,01,29,06,59,0.00
2018,01,29,07,00,0.00
2018,01,29,07,01,0.00
2018,01,29,07,02,0.00
2018,01,29,07,03,0.00
2018,01,29,07,04,0.10
2018,01,29,07,05,0.20
2018,01,29,07,06,0.00
2018,01,29,07,07,0.10
2018,01,29,07,08,0.90
2018,01,29,07,09,1.10
2018,01,29,07,10,0.80
2018,01,29,07,11,1.20
2018,01,29,07,12,1.50
2018,01,29,07,13,1.90
2018,01,29,07,14,1.90
2018,01,29,07,15,1.00
2018,01,29,07,16,1.50
2018,01,29,07,17,1.50
2018,01,29,07,18,0.90
2018,01,29,07,19,0.30
2018,01,29,07,20,1.10
2018,01,29,07,21,0.30
2018,01,29,07,22,1.50
2018,01,29,07,23,1.70
2018,01,29,07,24,1.50
2018,01,29,07,25,0.20
2018,01,29,07,26,2.30
2018,01,29,07,27,1.70
2018,01,29,07,28,1.00
2018,01,29,07,29,0.80
2018,01,29,07,30,0.60
2018,01,29,07,31,1.20
2018,01,29,07,32,1.50
2018,01,29,07,33,2.20
2018,01,29,07,34,1.80
2018,01,29,07,35,0.80
2018,01,29,07,36,0.70
2018,01,29,07,37,3.50
2018,01,29,07,38,2.50
2018,01,29,07,39,1.20
2018,01,29,07,40,1.20
2018,01,29,07,41,0.60
2018,01,29,07,42,2.20
2018,01,29,07,43,2.10
2018,01,29,07,44,0.10
2018,01,29,07,45,0.10
2018,01,29,07,46,0.00
2018,01,29,07,47,1.90
2018,01,29,07,48,4.30
2018,01,29,07,49,3.50
2018,01,29,07,50,1.90
2018,01,29,07,51,2.10
2018,01,29,07,52,1.70
2018,01,29,07,53,0.30
2018,01,29,07,54,0.60
2018,01,29,07,55,0.30
2018,01,29,07,56,3.40
2018,01,29,07,57,3.00
2018,01,29,07,58,1.60
2018,01,29,07,59,0.70
2018,01,29,08,00,1.00
2018,01,29,08,01,2.20
2018,01,29,08,02,1.10
2018,01,29,08,03,0.00
2018,01,29,08,04,0.00
2018,01,29,08,05,0.00
2018,01,29,08,06,0.00
2018,01,29,08,07,0.00
2018,01,29,08,08,0.20
2018,01,29,08,09,0.30
2018,01,29,08,10,0.00
2018,01,29,08,11,0.00
2018,01,29,08,12,0.00
2018,01,29,08,13,0.00
2018,01,29,08,14,0.00
2018,01,29,08,15,0.00
2018,01,29,08,16,0.00
2018,01,29,08,17,0.10
2018,01,29,08,18,0.30
2018,01,29,08,19,0.80
2018,01,29,08,20,0.00
2018,01,29,08,21,0.00
2018,01,29,08,22,0.10
2018,01,29,08,23,0.30
2018,01,29,08,24,0.80
2018,01,29,08,25,0.00
2018,01,29,08,26,0.00
2018,01,29,08,27,0.80
2018,01,29,08,28,1.10
2018,01,29,08,29,0.10
2018,01,29,08,30,0.90
2018,01,29,08,31,0.20
2018,01,29,08,32,1.00
2018,01,29,08,33,0.10
2018,01,29,08,34,0.10
2018,01,29,08,35,1.30
2018,01,29,08,36,1.60
2018,01,29,08,37,0.70
2018,01,29,08,38,0.00
2018,01,29,08,39,0.00
2018,01,29,08,40,0.00
2018,01,29,08,41,0.30
2018,01,29,08,42,0.40
2018,01,29,08,43,0.20
2018,01,29,08,44,0.70
2018,01,29,08,45,1.20
2018,01,29,08,46,1.10
2018,01,29,08,47,1.60
2018,01,29,08,48,0.70
2018,01,29,08,49,0.10
2018,01,29,08,50,0.00
2018,01,29,08,51,0.00
2018,01,29,08,52,0.00
2018,01,29,08,53,0.00
2018,01,29,08,54,0.00
2018,01,29,08,55,0.00
2018,01,29,08,56,0.00
2018,01,29,08,57,0.20
2018,01,29,08,58,0.40
2018,01,29,08,59,0.70
2018,01,29,09,00,0.00
2018,01,29,09,01,0.00
2018,01,29,09,02,0.00
2018,01,29,09,03,0.00
2018,01,29,09,04,0.00
2018,01,29,09,05,0.30
2018,01,29,09,06,0.60
2018,01,29,09,07,0.30
2018,01,29,09,08,0.70
2018,01,29,09,09,0.10
2018,01,29,09,10,0.00
2018,01,29,09,11,0.00
2018,01,29,09,12,0.00
2018,01,29,09,13,0.00
2018,01,29,09,14,0.00
2018,01,29,09,15,0.00
2018,01,29,09,16,0.00
2018,01,29,09,17,0.30
2018,01,29,09,18,0.20
2018,01,29,09,19,0.40
2018,01,29,09,20,0.10
2018,01,29,09,21,0.00
2018,01,29,09,22,0.30
2018,01,29,09,23,0.80
2018,01,29,09,24,0.80
2018,01,29,09,25,0.10
2018,01,29,09,26,0.30
2018,01,29,09,27,0.90
2018,01,29,09,28,0.20
2018,01,29,09,29,0.00
2018,01,29,09,30,0.00
2018,01,29,09,31,0.00
2018,01,29,09,32,0.00
2018,01,29,09,33,0.00
2018,01,29,09,34,0.00
2018,01,29,09,35,0.00
2018,01,29,09,36,0.00
2018,01,29,09,37,0.30
2018,01,29,09,38,1.10
2018,01,29,09,39,1.30
2018,01,29,09,40,0.60
2018,01,29,09,41,0.00
2018,01,29,09,42,0.20
2018,01,29,09,43,0.00
2018,01,29,09,44,0.00
2018,01,29,09,45,0.00
2018,01,29,09,46,0.00
2018,01,29,09,47,0.00
2018,01,29,09,48,0.00
2018,01,29,09,49,0.00
2018,01,29,09,50,0.40
2018,01,29,09,51,0.10
2018,01,29,09,52,0.00
2018,01,29,09,53,0.00
2018,01,29,09,54,0.00
2018,01,29,09,55,0.00
2018,01,29,09,56,0.00
2018,01,29,09,57,0.00
2018,01,29,09,58,0.00
2018,01,29,09,59,0.10
2018,01,29,10,00,0.30
2018,01,29,10,01,1.90
2018,01,29,10,02,2.70
2018,01,29,10,03,1.10
2018,01,29,10,04,0.00
2018,01,29,10,05,0.10
2018,01,29,10,06,0.20
2018,01,29,10,07,1.30
2018,01,29,10,08,1.20
2018,01,29,10,09,0.20
2018,01,29,10,10,0.00
2018,01,29,10,11,0.00
2018,01,29,10,12,0.00
2018,01,29,10,13,0.00
2018,01,29,10,14,0.00
2018,01,29,10,15,0.00
2018,01,29,10,16,0.00
2018,01,29,10,17,0.00
2018,01,29,10,18,0.00
2018,01,29,10,19,0.00
2018,01,29,10,20,0.10
2018,01,29,10,21,0.20
2018,01,29,10,22,0.20
2018,01,29,10,23,0.60
2018,01,29,10,24,1.10
2018,01,29,10,25,0.80
2018,01,29,10,26,0.50
2018,01,29,10,27,0.00
2018,01,29,10,28,0.00
2018,01,29,10,29,0.00
2018,01,29,10,30,0.00
2018,01,29,10,31,0.00
2018,01,29,10,32,0.00
2018,01,29,10,33,0.00
2018,01,29,10,34,0.00
2018,01,29,10,35,0.00
2018,01,29,10,36,0.30
2018,01,29,10,37,1.70
2018,01,29,10,38,0.20
2018,01,29,10,39,0.00
2018,01,29,10,40,0.00
2018,01,29,10,41,0.30
2018,01,29,10,42,1.90
2018,01,29,10,43,1.40
2018,01,29,10,44,1.10
2018,01,29,10,45,2.50
2018,01,29,10,46,1.80
2018,01,29,10,47,1.90
2018,01,29,10,48,1.20
2018,01,29,10,49,0.70
2018,01,29,10,50,0.20
2018,01,29,10,51,0.40
2018,01,29,10,52,0.00
2018,01,29,10,53,0.30
2018,01,29,10,54,0.30
2018,01,29,10,55,0.00
2018,01,29,10,56,0.70
2018,01,29,10,57,0.20
2018,01,29,10,58,0.00
2018,01,29,10,59,0.10
2018,01,29,11,00,0.80
2018,01,29,11,01,0.70
2018,01,29,11,02,1.20
2018,01,29,11,03,1.30
2018,01,29,11,04,0.10
2018,01,29,11,05,0.00
2018,01,29,11,06,1.30
2018,01,29,11,07,2.20
2018,01,29,11,08,1.30
2018,01,29,11,09,0.30
2018,01,29,11,10,0.40
2018,01,29,11,11,0.20
2018,01,29,11,12,0.10
2018,01,29,11,13,0.50
2018,01,29,11,14,0.20
2018,01,29,11,15,0.00
2018,01,29,11,16,0.50
2018,01,29,11,17,0.10
2018,01,29,11,18,1.00
2018,01,29,11,19,0.60
2018,01,29,11,20,1.80
2018,01,29,11,21,0.70
2018,01,29,11,22,2.00
2018,01,29,11,23,0.40
2018,01,29,11,24,2.70
2018,01,29,11,25,2.30
2018,01,29,11,26,1.20
2018,01,29,11,27,0.70
2018,01,29,11,28,0.90
2018,01,29,11,29,0.60
2018,01,29,11,30,1.20
2018,01,29,11,31,0.90
2018,01,29,11,32,0.40
2018,01,29,11,33,0.00
2018,01,29,11,34,1.10
2018,01,29,11,35,0.70
2018,01,29,11,36,2.00
2018,01,29,11,37,1.80
2018,01,29,11,38,1.90
2018,01,29,11,39,2.40
2018,01,29,11,40,2.30
2018,01,29,11,41,3.00
2018,01,29,11,42,3.20
2018,01,29,11,43,3.10
2018,01,29,11,44,2.10
2018,01,29,11,45,2.60
2018,01,29,11,46,1.30
2018,01,29,11,47,3.10
2018,01,29,11,48,1.30
2018,01,29,11,49,2.40
2018,01,29,11,50,0.90
2018,01,29,11,51,0.90
2018,01,29,11,52,1.20
2018,01,29,11,53,2.10
2018,01,29,11,54,0.90
2018,01,29,11,55,1.20
2018,01,29,11,56,2.30
2018,01,29,11,57,1.90
2018,01,29,11,58,1.20
2018,01,29,11,59,0.80
2018,01,29,12,00,0.10
2018,01,29,12,01,0.40
2018,01,29,12,02,1.10
2018,01,29,12,03,2.10
2018,01,29,12,04,1.60
2018,01,29,12,05,0.70
2018,01,29,12,06,0.10
2018,01,29,12,07,0.00
2018,01,29,12,08,0.00
2018,01,29,12,09,0.10
2018,01,29,12,10,0.20
2018,01,29,12,11,0.10
2018,01,29,12,12,0.10
2018,01,29,12,13,0.60
2018,01,29,12,14,1.70
2018,01,29,12,15,1.20
2018,01,29,12,16,1.30
2018,01,29,12,17,0.40
2018,01,29,12,18,0.00
2018,01,29,12,19,0.00
2018,01,29,12,20,0.40
2018,01,29,12,21,0.60
2018,01,29,12,22,1.50
2018,01,29,12,23,1.20
2018,01,29,12,24,0.50
2018,01,29,12,25,1.70
2018,01,29,12,26,1.60
2018,01,29,12,27,2.60
2018,01,29,12,28,2.10
2018,01,29,12,29,2.20
2018,01,29,12,30,1.30
2018,01,29,12,31,1.80
2018,01,29,12,32,1.10
2018,01,29,12,33,1.40
2018,01,29,12,34,1.90
2018,01,29,12,35,1.80
2018,01,29,12,36,0.50
2018,01,29,12,37,0.70
2018,01,29,12,38,0.40
2018,01,29,12,39,1.40
2018,01,29,12,40,1.00
2018,01,29,12,41,0.80
2018,01,29,12,42,1.10
2018,01,29,12,43,1.50
2018,01,29,12,44,0.90
2018,01,29,12,45,1.70
2018,01,29,12,46,2.00
2018,01,29,12,47,1.70
2018,01,29,12,48,1.80
2018,01,29,12,49,1.70
2018,01,29,12,50,2.60
2018,01,29,12,51,4.20
2018,01,29,12,52,3.00
2018,01,29,12,53,2.80
2018,01,29,12,54,2.10
2018,01,29,12,55,2.30
2018,01,29,12,56,2.20
2018,01,29,12,57,1.10
2018,01,29,12,58,0.10
2018,01,29,12,59,0.40
2018,01,29,13,00,0.20
2018,01,29,13,01,0.70
2018,01,29,13,02,0.30
2018,01,29,13,03,0.10
2018,01,29,13,04,0.00
2018,01,29,13,05,0.00
2018,01,29,13,06,0.00
2018,01,29,13,07,0.30
2018,01,29,13,08,0.60
2018,01,29,13,09,0.00
2018,01,29,13,10,0.10
2018,01,29,13,11,0.30
2018,01,29,13,12,0.70
2018,01,29,13,13,0.30
2018,01,29,13,14,0.90
2018,01,29,13,15,0.30
2018,01,29,13,16,0.20
2018,01,29,13,17,0.80
2018,01,29,13,18,0.50
2018,01,29,13,19,0.90
2018,01,29,13,20,0.60
2018,01,29,13,21,0.10
2018,01,29,13,22,0.00
2018,01,29,13,23,0.00
2018,01,29,13,24,0.00
2018,01,29,13,25,0.00
2018,01,29,13,26,0.00
2018,01,29,13,27,0.00
2018,01,29,13,28,0.40
2018,01,29,13,29,1.30
2018,01,29,13,30,1.60
2018,01,29,13,31,0.10
2018,01,29,13,32,0.00
2018,01,29,13,33,0.00
2018,01,29,13,34,0.10
2018,01,29,13,35,2.00
2018,01,29,13,36,0.20
2018,01,29,13,37,0.10
2018,01,29,13,38,0.10
2018,01,29,13,39,0.20
2018,01,29,13,40,0.70
2018,01,29,13,41,2.50
2018,01,29,13,42,4.70
2018,01,29,13,43,3.90
2018,01,29,13,44,3.40
2018,01,29,13,45,3.40
2018,01,29,13,46,5.60
2018,01,29,13,47,2.90
2018,01,29,13,48,2.10
2018,01,29,13,49,1.10
2018,01,29,13,50,3.40
2018,01,29,13,51,1.60
2018,01,29,13,52,1.10
2018,01,29,13,53,2.30
2018,01,29,13,54,5.20
2018,01,29,13,55,1.60
2018,01,29,13,56,1.20
2018,01,29,13,57,1.60
2018,01,29,13,58,2.20
2018,01,29,13,59,1.80
2018,01,29,14,00,1.50
2018,01,29,14,01,6.10
2018,01,29,14,02,8.90
2018,01,29,14,03,10.50
2018,01,29,14,04,4.60
2018,01,29,14,05,4.80
2018,01,29,14,06,7.40
2018,01,29,14,07,9.90
2018,01,29,14,08,4.50
2018,01,29,14,09,5.10
2018,01,29,14,10,3.70
2018,01,29,14,11,1.10
2018,01,29,14,12,4.90
2018,01,29,14,13,4.90
2018,01,29,14,14,4.40
2018,01,29,14,15,2.20
2018,01,29,14,16,3.90
2018,01,29,14,17,2.90
2018,01,29,14,18,3.00
2018,01,29,14,19,4.70
2018,01,29,14,20,2.10
2018,01,29,14,21,0.70
2018,01,29,14,22,2.10
2018,01,29,14,23,1.70
2018,01,29,14,24,5.70
2018,01,29,14,25,5.20
2018,01,29,14,26,3.50
2018,01,29,14,27,3.00
2018,01,29,14,28,1.40
2018,01,29,14,29,2.00
2018,01,29,14,30,3.90
2018,01,29,14,31,7.20
2018,01,29,14,32,4.00
2018,01,29,14,33,0.70
2018,01,29,14,34,2.20
2018,01,29,14,35,1.40
2018,01,29,14,36,3.20
2018,01,29,14,37,5.60
2018,01,29,14,38,4.90
2018,01,29,14,39,6.90
2018,01,29,14,40,2.90
2018,01,29,14,41,3.70
2018,01,29,14,42,6.60
2018,01,29,14,43,8.70
2018,01,29,14,44,4.50
2018,01,29,14,45,4.00
2018,01,29,14,46,2.90
2018,01,29,14,47,4.10
2018,01,29,14,48,10.40
2018,01,29,14,49,2.90
2018,01,29,14,50,6.60
2018,01,29,14,51,7.30
2018,01,29,14,52,2.90
2018,01,29,14,53,3.40
2018,01,29,14,54,2.70
2018,01,29,14,55,3.30
2018,01,29,14,56,4.20
2018,01,29,14,57,4.60
2018,01,29,14,58,4.80
2018,01,29,14,59,3.90
2018,01,29,15,00,2.30
2018,01,29,15,01,5.80
2018,01,29,15,02,5.20
2018,01,29,15,03,3.70
2018,01,29,15,04,2.20
2018,01,29,15,05,4.40
2018,01,29,15,06,2.70
2018,01,29,15,07,7.20
2018,01,29,15,08,6.10
2018,01,29,15,09,2.50
2018,01,29,15,10,1.30
2018,01,29,15,11,2.50
2018,01,29,15,12,2.20
2018,01,29,15,13,3.30
2018,01,29,15,14,4.40
2018,01,29,15,15,3.70
2018,01,29,15,16,5.30
2018,01,29,15,17,1.90
2018,01,29,15,18,1.80
2018,01,29,15,19,1.40
2018,01,29,15,20,3.10
2018,01,29,15,21,7.40
2018,01,29,15,22,5.10
2018,01,29,15,23,2.80
2018,01,29,15,24,5.60
2018,01,29,15,25,7.70
2018,01,29,15,26,2.80
2018,01,29,15,27,3.00
2018,01,29,15,28,3.70
2018,01,29,15,29,6.70
2018,01,29,15,30,7.40
2018,01,29,15,31,8.90
2018,01,29,15,32,3.70
2018,01,29,15,33,1.80
2018,01,29,15,34,2.90
2018,01,29,15,35,5.80
2018,01,29,15,36,4.20
2018,01,29,15,37,5.30
2018,01,29,15,38,3.80
2018,01,29,15,39,0.60
2018,01,29,15,40,3.20
2018,01,29,15,41,6.80
2018,01,29,15,42,4.30
2018,01,29,15,43,4.00
2018,01,29,15,44,6.60
2018,01,29,15,45,4.10
2018,01,29,15,46,4.90
2018,01,29,15,47,4.90
2018,01,29,15,48,7.00
2018,01,29,15,49,8.30
2018,01,29,15,50,8.30
2018,01,29,15,51,1.70
2018,01,29,15,52,0.90
2018,01,29,15,53,1.20
2018,01,29,15,54,5.30
2018,01,29,15,55,5.20
2018,01,29,15,56,8.80
2018,01,29,15,57,7.60
2018,01,29,15,58,6.00
2018,01,29,15,59,2.40
2018,01,29,16,00,4.40
2018,01,29,16,01,10.10
2018,01,29,16,02,9.40
2018,01,29,16,03,6.10
2018,01,29,16,04,5.80
2018,01,29,16,05,3.70
2018,01,29,16,06,5.20
2018,01,29,16,07,4.90
2018,01,29,16,08,4.10
2018,01,29,16,09,7.20
2018,01,29,16,10,3.90
2018,01,29,16,11,5.80
2018,01,29,16,12,5.50
2018,01,29,16,13,7.10
2018,01,29,16,14,2.40
2018,01,29,16,15,1.70
2018,01,29,16,16,7.30
2018,01,29,16,17,6.80
2018,01,29,16,18,6.50
2018,01,29,16,19,8.20
2018,01,29,16,20,2.70
2018,01,29,16,21,3.40
2018,01,29,16,22,6.40
2018,01,29,16,23,6.10
2018,01,29,16,24,2.50
2018,01,29,16,25,7.30
2018,01,29,16,26,7.30
2018,01,29,16,27,9.30
2018,01,29,16,28,5.80
2018,01,29,16,29,3.60
2018,01,29,16,30,2.60
2018,01,29,16,31,3.40
2018,01,29,16,32,5.00
2018,01,29,16,33,6.90
2018,01,29,16,34,4.80
2018,01,29,16,35,7.00
2018,01,29,16,36,7.40
2018,01,29,16,37,1.60
2018,01,29,16,38,1.50
2018,01,29,16,39,2.40
2018,01,29,16,40,3.10
2018,01,29,16,41,3.10
2018,01,29,16,42,1.70
2018,01,29,16,43,2.80
2018,01,29,16,44,4.00
2018,01,29,16,45,6.70
2018,01,29,16,46,4.30
2018,01,29,16,47,2.50
2018,01,29,16,48,4.80
2018,01,29,16,49,5.30
2018,01,29,16,50,4.80
2018,01,29,16,51,5.90
2018,01,29,16,52,5.90
2018,01,29,16,53,3.20
2018,01,29,16,54,6.90
2018,01,29,16,55,6.90
2018,01,29,16,56,4.80
2018,01,29,16,57,4.50
2018,01,29,16,58,9.30
2018,01,29,16,59,5.10
2018,01,29,17,00,5.60
2018,01,29,17,01,11.30
2018,01,29,17,02,6.40
2018,01,29,17,03,13.50
2018,01,29,17,04,4.40
2018,01,29,17,05,7.10
2018,01,29,17,06,3.40
2018,01,29,17,07,2.10
2018,01,29,17,08,2.40
2018,01,29,17,09,2.40
2018,01,29,17,10,2.50
2018,01,29,17,11,5.60
2018,01,29,17,12,3.80
2018,01,29,17,13,4.70
2018,01,29,17,14,4.20
2018,01,29,17,15,3.10
2018,01,29,17,16,7.50
2018,01,29,17,17,7.50
2018,01,29,17,18,4.10
2018,01,29,17,19,6.10
2018,01,29,17,20,5.40
2018,01,29,17,21,5.90
2018,01,29,17,22,2.70
2018,01,29,17,23,5.60
2018,01,29,17,24,6.70
2018,01,29,17,25,2.30
2018,01,29,17,26,8.90
2018,01,29,17,27,2.90
2018,01,29,17,28,3.00
2018,01,29,17,29,7.50
2018,01,29,17,30,10.10
2018,01,29,17,31,5.40
2018,01,29,17,32,2.10
2018,01,29,17,33,3.80
2018,01,29,17,34,4.60
2018,01,29,17,35,3.90
2018,01,29,17,36,5.30
2018,01,29,17,37,2.90
2018,01,29,17,38,2.60
2018,01,29,17,39,5.80
2018,01,29,17,40,3.40
2018,01,29,17,41,2.70
2018,01,29,17,42,1.70
2018,01,29,17,43,2.20
2018,01,29,17,44,2.50
2018,01,29,17,45,3.80
2018,01,29,17,46,4.20
2018,01,29,17,47,3.40
2018,01,29,17,48,4.40
2018,01,29,17,49,4.60
2018,01,29,17,50,5.00
2018,01,29,17,51,4.60
2018,01,29,17,52,8.90
2018,01,29,17,53,8.00
2018,01,29,17,54,3.00
2018,01,29,17,55,3.10
2018,01,29,17,56,1.60
2018,01,29,17,57,0.60
2018,01,29,17,58,1.10
2018,01,29,17,59,0.40
2018,01,29,18,00,4.30
2018,01,29,18,01,3.20
2018,01,29,18,02,4.00
2018,01,29,18,03,1.00
2018,01,29,18,04,1.50
2018,01,29,18,05,3.00
2018,01,29,18,06,2.40